When you browse on this site, cookies collect data to enhance your experience and personalize the content and advertising you see.
Visit our Privacy Policy to learn more. By continuing to use the site, you agree to this use of cookies and data.
  • în România
  • Lista ţărilor
  • Pe 7 zile
  • Temperatura apei
  • Hartă satelitară
  • Meteo pe hartă
  • Widget-uri
  • user-avatar
    Intrare

    Meteo pe oră la Zayare

    Astăzi, 20 Mai, Luni

    Timp Temperatura Precipitaţii Vânt Presiune Umiditate
    00:00 +3°C° 0 mm 3 m/s 753 mmHg 68%
    01:00 +2°C° 0 mm 3 m/s 754 mmHg 69%
    02:00 +2°C° 0 mm 3 m/s 754 mmHg 71%
    03:00 +2°C° 0 mm 3 m/s 754 mmHg 73%
    04:00 +2°C° 0 mm 3 m/s 754 mmHg 71%
    05:00 +3°C° 0 mm 4 m/s 755 mmHg 69%
    06:00 +4°C° 0 mm 4 m/s 755 mmHg 67%
    07:00 +5°C° 0 mm 4 m/s 755 mmHg 62%
    08:00 +7°C° 0 mm 4 m/s 755 mmHg 58%
    09:00 +8°C° 0 mm 5 m/s 755 mmHg 54%
    10:00 +8°C° 0 mm 5 m/s 755 mmHg 54%
    11:00 +9°C° 0 mm 5 m/s 755 mmHg 53%
    12:00 +9°C° 0 mm 5 m/s 755 mmHg 53%
    13:00 +9°C° 0 mm 5 m/s 755 mmHg 54%
    14:00 +9°C° 0 mm 5 m/s 755 mmHg 54%
    15:00 +9°C° 0 mm 5 m/s 755 mmHg 55%
    16:00 +9°C° 0 mm 5 m/s 755 mmHg 57%
    17:00 +9°C° 0 mm 5 m/s 755 mmHg 59%
    18:00 +10°C° 0 mm 4 m/s 755 mmHg 60%
    19:00 +8°C° 0 mm 4 m/s 755 mmHg 64%
    20:00 +8°C° 0 mm 3 m/s 755 mmHg 68%
    21:00 +7°C° 0 mm 3 m/s 755 mmHg 71%
    22:00 +5°C° 0 mm 3 m/s 755 mmHg 74%
    23:00 +5°C° 0 mm 3 m/s 756 mmHg 77%

    Mâine, 21 Mai, Marţi

    Timp Temperatura Precipitaţii Vânt Presiune Umiditate
    00:00 +5°C° 0 mm 2 m/s 756 mmHg 80%
    01:00 +4°C° 0 mm 3 m/s 756 mmHg 81%
    02:00 +4°C° 0 mm 3 m/s 756 mmHg 82%
    03:00 +3°C° 0 mm 3 m/s 756 mmHg 84%
    04:00 +5°C° 0 mm 3 m/s 757 mmHg 80%
    05:00 +7°C° 0 mm 3 m/s 757 mmHg 76%
    06:00 +7°C° 0 mm 4 m/s 757 mmHg 72%
    07:00 +8°C° 0 mm 4 m/s 757 mmHg 63%
    08:00 +11°C° 0 mm 4 m/s 757 mmHg 55%
    09:00 +13°C° 0 mm 5 m/s 757 mmHg 46%
    10:00 +13°C° 0 mm 5 m/s 757 mmHg 45%
    11:00 +14°C° 0 mm 4 m/s 757 mmHg 44%
    12:00 +14°C° 0 mm 4 m/s 757 mmHg 43%
    13:00 +14°C° 0 mm 4 m/s 757 mmHg 42%
    14:00 +15°C° 0 mm 4 m/s 757 mmHg 41%
    15:00 +15°C° 0 mm 4 m/s 757 mmHg 40%
    16:00 +15°C° 0 mm 4 m/s 756 mmHg 44%
    17:00 +14°C° 0 mm 3 m/s 756 mmHg 48%
    18:00 +14°C° 0 mm 3 m/s 756 mmHg 51%
    19:00 +14°C° 0 mm 2 m/s 756 mmHg 53%
    20:00 +12°C° 0 mm 2 m/s 756 mmHg 54%
    21:00 +11°C° 0 mm 1 m/s 756 mmHg 55%
    22:00 +11°C° 0 mm 1 m/s 756 mmHg 57%
    23:00 +10°C° 0 mm 2 m/s 756 mmHg 59%

    Poimâine, 22 Mai, Miercuri

    Timp Temperatura Precipitaţii Vânt Presiune Umiditate
    00:00 +10°C° 0 mm 2 m/s 756 mmHg 61%
    01:00 +10°C° 0.5 mm 2 m/s 756 mmHg 68%
    02:00 +10°C° 0.5 mm 1 m/s 756 mmHg 76%
    03:00 +10°C° 0.5 mm 1 m/s 756 mmHg 84%
    04:00 +10°C° 0.3 mm 1 m/s 755 mmHg 84%
    05:00 +9°C° 0.3 mm 2 m/s 755 mmHg 85%
    06:00 +10°C° 0.3 mm 2 m/s 755 mmHg 85%
    07:00 +10°C° 0.8 mm 2 m/s 755 mmHg 85%
    08:00 +12°C° 0.8 mm 2 m/s 754 mmHg 85%
    09:00 +11°C° 0.8 mm 3 m/s 754 mmHg 85%
    10:00 +13°C° 0.2 mm 2 m/s 754 mmHg 85%
    11:00 +14°C° 0.2 mm 2 m/s 754 mmHg 84%
    12:00 +15°C° 0.2 mm 2 m/s 753 mmHg 83%
    13:00 +17°C° 0.4 mm 2 m/s 753 mmHg 77%
    14:00 +19°C° 0.4 mm 3 m/s 753 mmHg 71%
    15:00 +21°C° 0.4 mm 4 m/s 752 mmHg 65%
    16:00 +20°C° 0.6 mm 3 m/s 752 mmHg 66%
    17:00 +20°C° 0.6 mm 3 m/s 752 mmHg 67%
    18:00 +20°C° 0.6 mm 3 m/s 751 mmHg 68%
    19:00 +19°C° 0.1 mm 3 m/s 751 mmHg 71%
    20:00 +17°C° 0.1 mm 3 m/s 751 mmHg 74%
    21:00 +16°C° 0.1 mm 3 m/s 751 mmHg 78%
    22:00 +16°C° 0.1 mm 3 m/s 751 mmHg 80%
    23:00 +14°C° 0.1 mm 3 m/s 751 mmHg 82%

    23 Mai, Joi

    Timp Temperatura Precipitaţii Vânt Presiune Umiditate
    00:00 +14°C° 0.1 mm 4 m/s 751 mmHg 84%
    01:00 +13°C° 0 mm 4 m/s 750 mmHg 84%
    02:00 +13°C° 0 mm 4 m/s 750 mmHg 84%
    03:00 +13°C° 0 mm 4 m/s 750 mmHg 83%
    04:00 +13°C° 0 mm 5 m/s 750 mmHg 81%
    05:00 +14°C° 0 mm 5 m/s 749 mmHg 79%
    06:00 +15°C° 0 mm 5 m/s 749 mmHg 77%
    07:00 +16°C° 0 mm 6 m/s 749 mmHg 70%
    08:00 +18°C° 0 mm 7 m/s 749 mmHg 63%
    09:00 +20°C° 0 mm 8 m/s 749 mmHg 56%
    10:00 +21°C° 0 mm 8 m/s 748 mmHg 53%
    11:00 +22°C° 0 mm 8 m/s 748 mmHg 51%
    12:00 +22°C° 0 mm 8 m/s 748 mmHg 48%
    13:00 +23°C° 0 mm 8 m/s 747 mmHg 47%
    14:00 +23°C° 0 mm 8 m/s 747 mmHg 47%
    15:00 +23°C° 0 mm 8 m/s 747 mmHg 46%
    16:00 +22°C° 0 mm 7 m/s 747 mmHg 50%
    17:00 +21°C° 0 mm 6 m/s 747 mmHg 53%
    18:00 +21°C° 0 mm 6 m/s 746 mmHg 56%
    19:00 +20°C° 0 mm 5 m/s 746 mmHg 56%
    20:00 +19°C° 0 mm 5 m/s 746 mmHg 56%
    21:00 +17°C° 0 mm 5 m/s 746 mmHg 56%
    22:00 +17°C° 0.1 mm 5 m/s 746 mmHg 60%
    23:00 +17°C° 0.1 mm 4 m/s 746 mmHg 64%

    24 Mai, Vineri

    Timp Temperatura Precipitaţii Vânt Presiune Umiditate
    00:00 +15°C° 0.1 mm 4 m/s 746 mmHg 68%
    01:00 +15°C° 0.8 mm 4 m/s 747 mmHg 74%
    02:00 +14°C° 0.8 mm 3 m/s 747 mmHg 81%
    03:00 +14°C° 0.8 mm 3 m/s 747 mmHg 87%
    04:00 +12°C° 1 mm 4 m/s 748 mmHg 87%
    05:00 +10°C° 1 mm 5 m/s 748 mmHg 87%
    06:00 +9°C° 1 mm 5 m/s 749 mmHg 87%
    07:00 +10°C° 0.2 mm 5 m/s 749 mmHg 83%
    08:00 +10°C° 0.2 mm 5 m/s 750 mmHg 79%
    09:00 +12°C° 0.2 mm 4 m/s 750 mmHg 76%
    10:00 +13°C° 0 mm 4 m/s 750 mmHg 69%
    11:00 +14°C° 0 mm 4 m/s 750 mmHg 62%
    12:00 +16°C° 0 mm 3 m/s 751 mmHg 55%
    13:00 +17°C° 0 mm 3 m/s 751 mmHg 53%
    14:00 +17°C° 0 mm 3 m/s 751 mmHg 50%
    15:00 +17°C° 0 mm 3 m/s 751 mmHg 48%
    16:00 +17°C° 0 mm 3 m/s 751 mmHg 51%
    17:00 +16°C° 0 mm 3 m/s 751 mmHg 55%
    18:00 +14°C° 0 mm 3 m/s 751 mmHg 59%
    19:00 +13°C° 0 mm 3 m/s 752 mmHg 62%
    20:00 +12°C° 0 mm 3 m/s 752 mmHg 65%
    21:00 +10°C° 0 mm 3 m/s 752 mmHg 69%
    22:00 +9°C° 0 mm 3 m/s 752 mmHg 69%
    23:00 +9°C° 0 mm 3 m/s 753 mmHg 70%

    25 Mai, Sâmbătă

    Timp Temperatura Precipitaţii Vânt Presiune Umiditate
    00:00 +8°C° 0 mm 3 m/s 753 mmHg 70%
    01:00 +8°C° 0 mm 3 m/s 753 mmHg 71%
    02:00 +7°C° 0 mm 3 m/s 753 mmHg 71%
    03:00 +7°C° 0 mm 3 m/s 754 mmHg 72%
    04:00 +8°C° 0 mm 3 m/s 754 mmHg 70%
    05:00 +9°C° 0 mm 3 m/s 754 mmHg 69%
    06:00 +8°C° 0 mm 4 m/s 755 mmHg 68%
    07:00 +11°C° 0 mm 4 m/s 755 mmHg 63%
    08:00 +12°C° 0 mm 4 m/s 755 mmHg 58%
    09:00 +14°C° 0 mm 4 m/s 755 mmHg 53%
    10:00 +15°C° 0 mm 4 m/s 755 mmHg 50%
    11:00 +15°C° 0 mm 4 m/s 755 mmHg 47%
    12:00 +17°C° 0 mm 4 m/s 755 mmHg 44%
    13:00 +18°C° 0 mm 4 m/s 755 mmHg 44%
    14:00 +18°C° 0 mm 4 m/s 755 mmHg 44%
    15:00 +18°C° 0 mm 4 m/s 755 mmHg 44%
    16:00 +18°C° 0 mm 3 m/s 755 mmHg 49%
    17:00 +17°C° 0 mm 3 m/s 755 mmHg 53%
    18:00 +17°C° 0 mm 3 m/s 755 mmHg 57%
    19:00 +14°C° 0 mm 3 m/s 755 mmHg 60%
    20:00 +13°C° 0 mm 4 m/s 755 mmHg 62%
    21:00 +11°C° 0 mm 4 m/s 755 mmHg 64%
    22:00 +11°C° 0 mm 4 m/s 755 mmHg 64%
    23:00 +9°C° 0 mm 5 m/s 755 mmHg 64%
    Arată mai mult